{"data":{"norad_id":46342,"epoch":"2026-09-20T04:38:29.092128Z","epoch_age_seconds":52127,"freshness":"FRESH","line1":"1 46342U 20062T   26263.19339227  .00051436  00000+0  95075-3 0  9991","line2":"2 46342  53.1504 175.5059 0004774 118.7973 241.3516 15.48570474334343","mean_motion":15.48570474,"eccentricity":0.0004774,"inclination_deg":53.1504,"raan_deg":175.5059,"arg_perigee_deg":118.7973,"mean_anomaly_deg":241.3516,"bstar":0.00095075,"rev_number":33434,"period_min":92.988987209632,"perigee_km":417.66123993979,"apogee_km":424.1529672499,"semimajor_km":6799.0441035948,"source":"CELESTRAK","updated_at":"2026-09-20T09:00:38.584107Z"}}